Worldloppet Ski Federation - Fis Marathon Cup

Search and browse results

The current database enables the following:


ico general ranking search
ico women ranking search
ico alphabetical search

Engadin Skimarathon

14.03.2004 42 km FT

Men's ranking

3103.STÖCKLI PeterSUI2:31.05,9
3105.PETROFF BorisFRA2:31.06,6
3107.SIGNER BernhardSUI2:31.07,4
3108.BLATTER JosefSUI2:31.07,5
3109.FREI JürgSUI2:31.08,0
3110.HÄNNI HansjörgSUI2:31.09,9
3111.BUSSMANN OliverSUI2:31.10,2
3112.SANDAS StefanFIN2:31.10,8
3114.CANDIDO MarcoSUI2:31.11,0
3115.ISLER HansSUI2:31.11,9
3116.BOURRIER FrançoisFRA2:31.12,7
3118.MATTER UrsSUI2:31.14,9
3121.SIEGENTHALER MartinSUI2:31.16,7
3123.MÜLLER AdrianSUI2:31.18,8
3124.STEINER KurtSUI2:31.19,2
3127.NEFF HansjörgSUI2:31.21,8
3129.MUSTAD HalfdanSWE2:31.26,2
3130.MÄRKI StefanSUI2:31.26,7
3131.PASZKOWSKI MarcinSUI2:31.28,7
3133.BITTERLIN WalterSUI2:31.29,3
3135.JAMIESON BrianGBR2:31.31,7
3136.STAMM FrediSUI2:31.32,5
3138.Tschümperlin FelixSUI2:31.33,3
3141.Rügg BrunoSUI2:31.37,9
3142.GRUNER GerhardGER2:31.38,0
3143.CORTESI AlbertoSUI2:31.39,8
3144.LEHNERT EnricoGER2:31.40,3
3146.LISIGNOLI RomanoSUI2:31.41,4
3148.WIESER RudolfSUI2:31.43,1
3149.BURRI ThomasSUI2:31.43,5
3150.KÄGI Martin K.SUI2:31.44,4
3151.BLEIKER FredySUI2:31.44,7
3152.LÄDERACH PatrickSUI2:31.44,8
3153.NAUMANN ThomasGER2:31.45,5
3154.BLUM VinzenzSUI2:31.45,8
3155.VOGEL MarcoSUI2:31.45,9
3157.SCHULER LukasSUI2:31.47,9
3158.Beyerle FabrizioITA2:31.49,4
3160.REYMOND FrancoisSUI2:31.51,3
3161.Brügger BeatSUI2:31.51,7
3161.BRÜGGER ThomasSUI2:31.51,7
3163.INAUEN ChristophSUI2:31.52,2
3165.OSCHWALD JürgSUI2:31.54,5
3165.ROMBACH BrunoGER2:31.54,5
3168.SCHEIDEGGER KarlSUI2:31.55,6
3170.WALDMANN SteffenGER2:31.55,9
3172.Weigelt JensGER2:31.57,7
3173.Thiery StefanFRA2:31.57,8
3174.BOTHE BillUSA2:31.58,9
3175.MATERNE BerndGER2:32.00,2
3177.SHERPA DachhiriNPL2:32.00,5
3178.SAMPSON JonGBR2:32.01,3
3179.RIVOLTA StefanoITA2:32.01,8
3180.BÄRTSCH ReneSUI2:32.02,0
3182.Schwarz UrsSUI2:32.03,3
3183.SCHNIDER BeatSUI2:32.03,6
3184.MEIER PhilippSUI2:32.03,9
3185.WÜTHRICH StefanSUI2:32.05,0
3186.Bernorio AlessandroITA2:32.05,6
3188.WEBER MarkusSUI2:32.06,1
3188.ANTOS JiríCZE2:32.06,1
3191.TAMBINI RobertoSUI2:32.06,8
3193.REICHEL StenGER2:32.08,7
3194.WERLEN WalterSUI2:32.09,2
3196.HEIM MarcSUI2:32.09,8
3198.VAN DEN HURK HansSUI2:32.10,3
3200.EHRBAR WalterSUI2:32.11,8


next rankings:

3101 - 3200






  
FWC Next race approaching
left to...
La Transjurassienne
FWC Next race approaching
left to...
American Birkebeiner
WL Next race approaching
left to...
American Birkebeiner
WL Next race approaching
left to...
Tartu Maraton

Download Marathon Skier Magazine

Marathonskier.com
WORLDLOPPET
SKI FEDERATION

Loc. Stalimen 4, Stadio Del Salto
I-38037 Predazzo (Tn), Italy
Phone: +39.0462.501110
Fax: +39.0462.501120
Email: info@worldloppet.com

All Rights Reserved © 2015 Worldloppet Ski Federation

Impressum | Powered by   Juniper-XS - Cavalese (Tn)